Temperature
8 8 9 9 9 10 10 10 11 11 11 11 11 11 11 11 11 10 10 10 10 10 10 10 10 10 9 9 9 9 9 9 9 9 9 9 8 8 8 8 7 7 7
8 8 8 8 9 9 10 10 10 10 11 11 10 11 11 11 11 10 10 10 10 10 10 10 10 10 9 9 9 9 9 9 9 9 9 8 8 8 8 7 7 7 6
7 7 7 8 8 9 10 10 10 10 10 10 10 10 10 10 10 10 10 10 10 10 10 10 10 10 9 9 9 9 9 9 8 8 8 8 8 7 7 7 6 6 6
6 7 7 7 8 8 9 9 9 9 10 10 10 10 10 10 10 10 10 10 10 10 10 10 10 9 9 9 9 9 9 8 8 8 8 8 7 7 7 7 6 6 6
6 6 7 7 7 8 8 9 9 9 10 10 10 10 10 10 10 10 10 10 10 10 10 10 9 9 9 9 9 9 8 8 8 7 7 7 7 7 6 6 6 6 5
5 6 6 7 7 7 7 8 8 9 9 9 9 9 9 9 10 10 10 10 10 10 10 9 9 9 9 9 9 8 8 8 8 7 7 7 7 6 6 6 5 5 5
5 5 5 6 6 7 7 7 8 8 9 9 9 9 9 9 9 9 9 9 9 9 9 9 9 9 9 8 8 8 8 8 7 7 7 7 6 6 6 5 5 5 4
5 5 5 5 6 6 6 7 7 8 8 8 8 8 9 9 9 9 9 9 9 9 9 9 9 9 9 8 8 8 7 7 7 7 6 6 6 6 5 5 5 4 4
4 4 4 5 5 5 6 6 7 7 7 8 8 8 8 8 9 9 9 8 9 9 9 9 9 9 8 8 7 7 7 7 6 6 6 6 5 5 5 4 4 4 3
3 4 4 4 4 5 5 6 6 7 7 7 8 8 8 8 8 8 8 8 8 8 8 8 8 8 8 7 7 7 7 6 6 6 6 5 5 5 4 4 4 3 3
3 3 3 4 4 4 5 5 6 6 7 7 7 7 8 8 8 8 8 8 8 8 8 8 8 8 7 7 7 7 6 6 6 5 5 5 4 4 4 4 3 3 2
2 3 3 3 3 4 5 5 6 6 6 7 7 7 7 7 7 7 8 8 8 8 8 8 8 7 7 7 6 6 6 5 5 5 5 4 4 4 3 3 3 2 2
2 2 3 3 3 3 4 5 5 5 6 6 6 6 6 7 7 7 7 7 7 7 7 7 7 7 6 6 6 5 5 5 5 4 4 4 4 3 3 2 2 2 1
2 2 2 2 3 3 4 4 4 5 5 5 6 6 6 6 6 6 6 6 7 7 7 6 6 6 6 5 5 5 4 4 4 4 4 3 3 3 2 2 2 1 1
1 1 2 2 2 3 3 3 4 4 4 5 5 5 5 6 6 6 6 6 6 6 6 6 6 5 5 5 5 4 4 4 3 3 3 3 3 2 2 1 1 1 0
1 1 1 1 2 2 2 3 3 4 4 4 5 5 5 5 5 5 5 5 5 5 6 6 5 5 5 5 4 4 4 3 3 3 3 2 2 2 1 1 1 0 0
0 0 1 1 1 2 2 2 2 3 4 4 4 4 5 5 5 5 5 5 5 5 5 5 5 5 5 4 4 4 3 3 3 2 2 2 2 1 1 1 0 -0 -0
-0 0 0 1 1 1 1 1 1 2 2 3 4 4 4 4 4 4 4 4 4 4 4 4 4 4 4 4 4 3 3 2 2 2 2 2 1 1 1 0 0 -0 -1
-1 -0 -0 0 0 0 1 1 1 1 1 2 3 3 3 4 4 4 4 4 4 4 4 4 4 4 4 3 3 3 2 2 2 2 2 1 1 1 0 -0 -0 -1 -1
-1 -1 -1 -1 -0 -0 0 0 0 1 1 1 2 2 3 3 3 3 3 3 3 3 3 3 3 3 3 3 3 2 2 2 2 2 1 1 1 0 -0 -0 -1 -1 -1
-1 -1 -1 -1 -1 -1 -0 -0 0 0 0 1 1 2 2 2 2 3 2 2 2 3 2 2 3 2 2 2 2 2 2 2 2 1 1 1 0 -0 -0 -1 -1 -1 -1
-2 -2 -2 -1 -1 -1 -1 -1 -0 -0 0 0 1 1 1 1 2 2 2 2 2 2 2 2 2 2 2 2 2 2 1 1 1 1 1 0 -0 -0 -1 -1 -1 -1 -2
-2 -2 -2 -2 -2 -1 -1 -1 -1 -0 -0 0 0 0 1 1 1 1 2 1 2 1 2 2 2 2 2 1 1 1 1 1 1 1 1 0 -0 -1 -1 -1 -1 -1 -2
-3 -3 -3 -2 -2 -2 -2 -2 -1 -1 -0 -0 0 0 0 0 1 1 1 1 1 1 1 1 1 1 1 1 1 1 1 1 1 0 0 -0 -0 -1 -1 -1 -1 -2 -2
-3 -3 -3 -3 -3 -3 -2 -2 -2 -1 -1 -1 -0 -0 -0 -0 0 0 0 0 1 1 1 1 1 1 1 1 1 1 1 0 0 0 -0 -0 -1 -1 -1 -1 -2 -2 -2
-4 -4 -4 -4 -4 -3 -3 -3 -2 -2 -1 -1 -1 -1 -1 -1 -0 -0 -0 -0 -0 -0 0 0 0 0 0 0 0 0 -0 -0 -0 -0 -1 -1 -1 -1 -1 -2 -2 -2 -3
Wind_Speed
4 4 5 6 7 7 8 9 10 10 12 13 13 14 14 14 13 13 13 12 13 12 11 11 11 8 7 6 5 5 5 5 6 4 2 2 3 3 2 3 4 4 5
3 4 4 5 5 6 8 8 8 9 10 12 12 13 14 14 13 14 15 14 14 14 13 12 11 9 9 7 7 7 6 5 5 6 3 2 3 3 2 2 2 3 4
4 4 4 5 5 6 7 7 8 8 8 10 11 12 13 14 14 14 14 14 13 13 12 12 11 11 11 7 7 7 6 5 4 4 4 2 1 1 1 1 1 2 3
4 4 4 4 4 5 6 6 7 8 8 10 10 10 11 12 13 12 12 12 12 11 11 11 11 11 11 9 8 8 6 5 4 4 3 2 2 1 1 1 2 2 2
4 5 6 4 3 4 4 5 6 7 8 9 9 9 9 10 11 11 11 12 12 11 10 10 10 11 12 10 8 8 8 6 5 4 4 2 2 2 2 2 3 2 2
4 5 6 4 3 3 4 4 5 5 6 8 9 9 10 9 11 13 12 11 11 11 10 9 9 10 11 13 13 12 11 9 7 5 4 4 5 4 3 2 2 1 3
4 5 5 5 4 4 4 3 4 5 6 7 8 9 9 9 12 13 13 11 11 11 10 9 7 8 10 9 10 10 10 10 10 8 6 6 5 6 4 3 3 3 3
5 5 6 5 4 4 4 3 3 4 5 7 8 7 8 8 11 13 13 11 10 10 10 10 9 9 9 9 7 6 4 4 5 4 5 5 4 4 4 4 3 2 0
5 6 6 6 5 4 4 4 3 3 4 6 7 7 7 8 10 12 12 8 8 8 8 9 10 9 11 12 9 7 5 2 3 5 5 4 4 5 4 3 2 1 1
6 6 6 6 6 5 4 5 4 4 4 5 6 6 7 7 9 11 12 7 8 7 7 8 11 11 12 13 9 8 7 4 5 4 4 4 3 3 3 2 3 2 1
5 6 6 6 5 5 4 4 3 3 4 5 5 5 6 6 8 10 11 8 8 8 7 7 7 12 13 13 10 8 8 7 5 5 4 3 2 2 1 1 1 2 2
5 5 6 6 5 4 4 4 2 3 3 4 4 4 4 5 7 8 9 9 9 8 7 7 8 13 13 13 9 9 12 9 5 4 3 2 2 1 1 1 1 1 1
5 5 6 6 5 4 4 4 2 2 2 3 4 4 3 3 5 7 8 7 8 6 6 9 10 13 12 9 10 13 10 6 5 4 4 2 2 2 2 1 2 3 3
4 5 5 5 5 5 4 2 2 2 2 3 3 4 4 3 4 4 5 5 5 5 5 8 11 12 9 9 9 8 5 5 5 5 4 3 3 2 1 1 0 1 1
4 5 5 5 5 5 3 2 2 2 3 3 3 4 5 5 5 6 6 5 5 5 7 5 5 6 6 5 5 5 5 5 4 4 4 3 3 2 1 1 1 0 0
4 4 4 4 4 4 3 3 4 3 4 4 4 4 4 5 6 7 7 7 8 10 8 7 7 7 7 7 6 5 5 5 4 4 4 4 3 3 2 1 1 1 0
4 4 4 4 4 3 2 2 3 5 5 3 2 3 4 5 7 8 8 8 10 10 6 7 7 7 7 7 7 6 4 5 4 4 4 4 3 3 2 2 1 1 0
4 5 4 4 3 3 2 2 2 2 3 3 3 1 3 5 6 8 9 7 6 5 4 6 6 6 7 7 7 6 5 5 5 4 4 4 3 3 3 2 2 1 1
4 3 3 3 3 2 2 2 2 2 2 2 2 1 1 4 6 8 8 5 6 5 4 4 5 6 6 6 6 6 6 6 6 5 4 4 4 3 3 2 2 2 1
3 5 4 3 3 2 2 2 2 2 2 2 2 1 1 2 3 4 3 3 4 4 4 4 5 5 6 6 7 7 6 6 6 5 5 4 4 4 4 3 3 2 1
3 4 5 4 3 2 2 2 2 2 2 2 2 3 3 3 4 4 3 3 4 5 5 5 5 5 5 5 6 7 7 6 6 5 5 4 4 4 3 3 3 2 2
3 3 3 3 3 3 2 2 2 3 3 3 2 2 3 2 3 3 3 3 3 4 4 5 5 5 5 5 6 7 7 7 6 6 5 5 4 4 4 3 3 2 2
3 3 3 3 3 4 3 2 3 3 3 3 2 2 2 2 2 3 3 3 3 4 4 4 5 5 4 5 5 6 7 7 7 8 7 6 5 4 4 4 4 4 3
3 4 4 3 3 3 3 3 3 3 3 3 2 2 2 2 2 2 3 4 4 4 4 4 5 6 7 5 4 5 5 6 8 8 9 8 6 5 5 4 4 4 3
4 4 4 4 3 3 3 3 3 3 3 2 2 2 2 3 3 3 3 4 4 4 4 5 5 6 8 7 6 6 8 10 10 9 8 7 7 6 6 5 5 5 4
4 4 4 3 3 3 3 3 4 3 2 2 3 3 3 3 3 4 4 4 4 4 4 5 6 7 7 7 8 10 11 11 12 11 10 8 7 7 7 6 7 6 6
Wind_Direction
271 265 255 247 226 215 208 209 209 208 200 199 199 196 194 193 192 194 198 192 197 201 199 202 209 199 197 197 194 196 200 196 227 245 218 205 186 198 227 230 235 244 256
295 285 269 270 238 216 211 212 209 209 203 200 197 197 196 194 192 196 198 197 200 203 202 201 206 200 201 197 195 200 202 198 208 233 230 204 208 211 213 220 253 259 262
311 305 284 277 260 236 220 214 209 209 206 200 196 198 197 195 194 198 199 198 200 203 200 202 203 197 203 199 194 199 202 199 200 212 229 215 212 203 217 254 267 270 276
304 304 285 267 268 260 237 217 211 208 205 202 197 198 198 195 195 195 197 196 198 199 199 201 201 200 202 196 197 200 195 195 193 202 220 218 219 200 170 235 270 277 281
312 308 294 280 284 281 263 227 214 210 208 198 197 197 198 196 195 192 194 195 195 197 198 200 201 198 196 195 195 194 190 194 192 201 217 217 217 196 217 211 240 281 271
315 308 309 302 292 292 276 255 218 209 207 194 194 196 199 202 193 189 191 194 193 195 197 198 196 193 194 193 192 190 190 193 199 203 214 221 223 215 205 203 208 239 264
319 314 314 314 302 293 277 266 232 217 203 199 198 199 203 201 190 189 190 193 191 195 196 194 194 193 189 192 194 193 195 196 196 200 210 219 213 206 191 200 212 223 233
322 321 322 320 307 296 285 266 257 236 204 202 201 200 204 201 191 191 188 192 192 194 195 193 191 189 188 180 175 177 183 195 197 196 201 208 202 190 189 195 196 196 210
322 322 324 324 309 299 291 272 265 246 219 205 199 198 200 201 190 188 182 189 190 193 191 190 187 187 180 167 166 166 158 143 110 128 132 132 135 144 146 132 139 144 243
313 314 318 320 311 297 291 281 268 234 228 210 202 198 199 200 191 186 181 187 187 188 185 187 185 180 172 165 168 168 172 167 140 117 105 98 98 118 132 165 178 191 213
311 314 316 317 314 304 298 289 264 234 226 210 198 196 197 196 189 185 185 190 188 186 187 187 185 173 171 171 170 176 171 156 149 141 132 116 99 89 70 53 148 184 197
315 317 316 320 320 315 308 302 266 229 211 196 187 192 192 189 188 190 190 194 190 187 189 184 177 169 168 168 168 159 149 142 143 142 144 147 140 126 85 52 58 70 173
320 319 320 322 318 317 304 291 270 232 199 193 188 189 191 190 190 187 187 188 186 190 182 170 164 162 160 162 156 151 148 149 150 153 166 173 161 153 137 90 55 54 45
310 312 315 320 319 321 304 276 247 236 214 201 193 191 190 192 185 181 182 174 165 160 153 150 149 147 145 147 149 148 151 157 158 161 157 146 136 137 138 123 115 65 37
302 304 308 311 309 314 303 282 272 248 228 228 213 200 194 204 201 188 182 180 176 168 146 138 144 149 153 151 147 147 148 147 144 142 142 143 145 143 144 118 96 77 115
296 299 301 306 311 312 313 329 330 306 300 281 244 225 224 215 194 187 182 172 165 161 153 159 164 167 168 165 163 161 158 157 152 149 152 155 158 161 158 126 74 100 168
273 283 290 296 306 309 314 326 333 343 341 315 265 226 209 198 188 181 169 161 162 160 161 168 172 172 169 165 165 166 166 157 150 152 155 157 158 160 161 155 143 114 158
272 278 282 287 298 298 299 297 294 303 317 325 323 249 194 186 178 166 155 148 161 163 166 170 172 170 166 165 164 161 154 149 149 153 155 156 158 160 160 163 173 178 188
275 276 280 287 293 282 291 292 288 285 286 288 316 319 181 161 156 159 156 165 172 174 167 165 165 164 164 163 161 159 157 158 157 158 159 159 162 160 159 163 167 156 135
273 277 282 283 283 271 281 276 271 270 272 263 248 233 150 139 152 164 169 168 168 166 162 160 160 160 161 160 159 158 156 157 158 160 162 163 162 160 163 161 160 161 179
265 277 282 286 268 257 256 255 255 259 257 256 249 226 199 179 178 176 175 172 169 165 161 159 160 160 159 157 158 159 159 162 163 164 163 162 158 156 159 156 152 144 132
250 260 265 266 261 260 254 247 247 252 254 251 246 221 202 170 171 172 170 166 161 157 158 161 162 163 164 163 161 161 165 164 163 162 159 157 155 153 149 147 143 137 130
245 257 264 260 261 265 268 256 247 247 248 235 220 209 190 166 163 163 160 155 150 148 148 151 153 152 149 148 153 162 169 172 170 164 158 155 153 153 152 149 147 142 138
237 244 249 252 256 249 249 257 252 249 238 219 203 194 180 161 148 153 157 153 148 146 147 151 151 152 148 145 144 145 149 150 152 155 153 155 152 150 148 146 144 141 138
233 239 240 242 248 246 246 256 254 247 234 216 198 181 167 158 153 150 153 150 144 144 146 145 144 145 146 147 148 146 146 145 145 144 142 143 146 146 145 143 140 134 128
232 233 237 238 242 239 239 246 245 233 226 213 196 182 172 167 163 156 150 146 145 146 145 142 141 144 145 143 143 144 143 142 141 140 139 139 141 141 139 134 132 130 127
Height
1382 1382 1382 1382 1384 1386 1388 1391 1395 1398 1402 1405 1409 1412 1416 1420 1425 1429 1433 1437 1441 1445 1448 1452 1455 1459 1462 1464 1466 1468 1469 1470 1470 1470 1471 1471 1471 1471 1470 1469 1468 1467 1465
1379 1378 1378 1378 1379 1381 1383 1386 1390 1393 1396 1400 1403 1407 1411 1415 1419 1423 1427 1431 1435 1438 1442 1446 1449 1453 1456 1458 1461 1462 1464 1465 1466 1465 1465 1466 1466 1466 1465 1465 1464 1462 1461
1377 1376 1375 1375 1375 1376 1378 1381 1384 1388 1391 1395 1398 1401 1405 1409 1413 1417 1421 1425 1428 1432 1436 1440 1443 1447 1449 1452 1454 1456 1458 1460 1460 1461 1460 1461 1461 1461 1460 1460 1459 1457 1456
1374 1373 1372 1371 1371 1372 1374 1377 1380 1383 1386 1390 1393 1396 1399 1403 1407 1411 1415 1419 1423 1427 1431 1434 1438 1441 1443 1446 1449 1451 1453 1454 1455 1455 1455 1455 1456 1456 1455 1454 1453 1452 1451
1371 1370 1369 1368 1368 1369 1370 1372 1375 1378 1381 1385 1388 1391 1394 1398 1402 1405 1409 1413 1417 1421 1425 1428 1432 1435 1438 1441 1443 1445 1447 1448 1449 1450 1450 1450 1450 1450 1450 1449 1448 1447 1446
1369 1368 1366 1365 1365 1365 1366 1368 1371 1373 1376 1379 1382 1386 1389 1393 1396 1400 1404 1408 1412 1416 1419 1423 1426 1429 1432 1435 1437 1439 1441 1443 1443 1444 1445 1445 1445 1446 1446 1445 1444 1443 1441
1367 1366 1364 1363 1363 1362 1363 1364 1366 1369 1371 1374 1377 1381 1384 1387 1391 1395 1399 1403 1406 1410 1414 1417 1420 1423 1426 1429 1432 1434 1436 1437 1439 1440 1440 1440 1441 1441 1441 1440 1439 1438 1437
1364 1363 1362 1360 1360 1360 1360 1361 1363 1365 1367 1370 1373 1376 1379 1383 1386 1390 1394 1398 1401 1405 1408 1412 1415 1418 1421 1424 1426 1428 1430 1431 1433 1435 1436 1436 1437 1437 1437 1437 1435 1434 1433
1361 1359 1358 1357 1357 1356 1357 1358 1359 1361 1363 1366 1369 1372 1375 1378 1382 1385 1389 1392 1396 1399 1403 1406 1409 1412 1415 1418 1421 1422 1424 1426 1428 1430 1431 1432 1432 1432 1432 1432 1431 1430 1428
1359 1357 1355 1354 1354 1354 1354 1355 1356 1357 1359 1362 1365 1368 1371 1374 1378 1381 1384 1387 1390 1394 1397 1401 1404 1407 1410 1413 1415 1417 1419 1420 1423 1424 1426 1427 1427 1428 1428 1428 1428 1427 1425
1357 1355 1353 1352 1351 1351 1351 1351 1352 1354 1356 1358 1361 1364 1367 1370 1374 1377 1380 1383 1385 1388 1391 1394 1398 1401 1405 1408 1411 1413 1414 1417 1418 1420 1421 1422 1422 1423 1424 1424 1424 1423 1422
1355 1353 1351 1349 1348 1348 1347 1348 1349 1351 1352 1354 1357 1360 1363 1366 1369 1372 1375 1378 1381 1384 1386 1389 1393 1396 1400 1403 1406 1408 1410 1412 1414 1415 1416 1417 1418 1419 1420 1420 1420 1419 1419
1352 1350 1348 1347 1346 1345 1344 1345 1346 1347 1348 1351 1353 1356 1359 1362 1365 1368 1371 1374 1377 1380 1382 1385 1389 1392 1395 1398 1401 1403 1406 1408 1409 1410 1412 1413 1415 1416 1416 1416 1416 1416 1415
1349 1347 1346 1344 1343 1342 1342 1343 1343 1344 1346 1348 1350 1352 1355 1358 1361 1363 1366 1369 1372 1375 1378 1381 1384 1388 1391 1394 1396 1399 1401 1403 1405 1407 1408 1410 1411 1412 1413 1413 1413 1412 1412
1347 1345 1343 1342 1341 1340 1340 1340 1340 1342 1343 1345 1347 1349 1351 1353 1356 1360 1361 1364 1367 1370 1373 1376 1379 1382 1386 1389 1392 1394 1397 1399 1401 1403 1405 1407 1407 1408 1409 1410 1410 1409 1408
1344 1342 1341 1339 1338 1338 1337 1337 1338 1340 1341 1342 1344 1346 1348 1350 1353 1356 1359 1361 1363 1366 1369 1371 1374 1377 1380 1383 1387 1389 1392 1395 1397 1400 1402 1404 1404 1405 1406 1407 1407 1406 1406
1341 1340 1339 1338 1337 1336 1336 1335 1335 1337 1338 1339 1341 1343 1345 1347 1350 1353 1355 1357 1360 1362 1365 1367 1369 1372 1376 1379 1382 1385 1388 1391 1394 1397 1399 1400 1402 1403 1403 1404 1404 1404 1403
1338 1337 1336 1335 1335 1334 1334 1334 1334 1334 1334 1335 1338 1340 1342 1344 1347 1349 1351 1353 1355 1358 1360 1363 1365 1368 1371 1375 1378 1382 1385 1388 1391 1393 1395 1398 1399 1400 1401 1401 1401 1401 1401
1334 1333 1333 1332 1332 1332 1332 1332 1332 1332 1333 1333 1334 1337 1339 1341 1343 1346 1348 1349 1351 1353 1356 1359 1362 1365 1368 1371 1374 1378 1381 1384 1387 1390 1392 1394 1396 1397 1398 1399 1399 1399 1399
1330 1330 1330 1329 1329 1329 1329 1330 1330 1330 1330 1331 1332 1334 1336 1338 1339 1342 1344 1346 1348 1350 1353 1356 1359 1362 1364 1368 1371 1375 1378 1381 1384 1387 1389 1391 1393 1395 1396 1397 1397 1397 1397
1326 1326 1326 1326 1326 1327 1327 1327 1328 1328 1328 1328 1330 1332 1334 1335 1336 1338 1340 1343 1345 1348 1350 1353 1356 1359 1362 1365 1368 1372 1375 1378 1381 1383 1386 1388 1390 1392 1394 1395 1395 1396 1396
1322 1322 1323 1323 1323 1324 1324 1325 1325 1325 1326 1326 1327 1329 1331 1332 1333 1335 1337 1340 1343 1345 1348 1351 1353 1356 1359 1362 1365 1368 1371 1374 1377 1380 1383 1386 1388 1390 1391 1392 1393 1394 1394
1318 1319 1319 1320 1320 1321 1321 1322 1322 1323 1323 1324 1325 1326 1328 1329 1330 1333 1335 1337 1340 1342 1345 1348 1351 1354 1357 1360 1363 1366 1369 1372 1375 1378 1380 1383 1385 1387 1389 1390 1391 1392 1393
1314 1315 1315 1316 1317 1317 1318 1318 1319 1320 1320 1321 1322 1324 1325 1327 1329 1331 1333 1335 1338 1340 1343 1346 1349 1352 1355 1358 1361 1364 1368 1370 1373 1376 1378 1380 1383 1385 1387 1388 1390 1391 1392
1310 1310 1311 1312 1313 1313 1314 1315 1315 1316 1317 1318 1320 1321 1323 1325 1327 1329 1331 1333 1336 1338 1341 1344 1347 1350 1353 1356 1359 1362 1365 1368 1371 1373 1376 1379 1381 1383 1385 1387 1388 1390 1391
1305 1306 1307 1308 1309 1310 1311 1311 1312 1313 1314 1316 1317 1319 1321 1323 1325 1327 1329 1331 1334 1337 1340 1343 1346 1349 1352 1355 1358 1360 1363 1366 1369 1372 1374 1377 1379 1381 1383 1385 1387 1389 1390